Weather History for College Station, TX

Change the Weather History Date:

Wednesday, September 19, 2012

  Actual Average Record
Temperature  
Mean Temperature 77 °F 79 °F  
Max Temperature 89 °F 90 °F 101 °F (1956)
Min Temperature 65 °F 69 °F 50 °F (1981)
Degree Days  
Heating Degree Days 0 0  
Month to date heating degree days 0 0  
Since 1 July heating degree days 0 0  
Cooling Degree Days 12 14  
Month to date cooling degree days 327 315  
Year to date cooling degree days 3099 2661  
Growing Degree Days 27 (Base 50)    
Moisture  
Dew Point 55 °F    
Average Humidity 55    
Maximum Humidity 94    
Minimum Humidity 22    
Precipitation  
Precipitation 0.00 in 0.10 in 4.86 in (1983)
Month to date precipitation 0.53 2.06  
Year to date precipitation 32.06 27.58  
Sea Level Pressure  
Sea Level Pressure 30.07 in    
Wind  
Wind Speed 5 mph (ENE)    
Max Wind Speed 12 mph    
Max Gust Speed 17 mph    
Visibility 10 miles    
Events      
T = Trace of Precipitation, MM = Missing Value Source: NWS Daily Summary

Daily Weather History Graph

Daily Weather History Graph

Search for Another Location

Airport:

Trip Planner

Search our weather history database for the weather conditions in past years. The results will help you decide how hot, cold, wet, or windy it might be!

Date:

Astronomy

Sep. 19, 2012 Rise Set
Actual Time 7:12 AM CDT 7:25 PM CDT
Civil Twilight 6:48 AM CDT 7:49 PM CDT
Nautical Twilight 6:20 AM CDT 8:17 PM CDT
Astronomical Twilight 5:51 AM CDT 8:45 PM CDT
Moon 11:02 AM CDT (9/19) 9:57 PM CDT (9/19)
Length of Visible Light 13h 00m
Length of Day
12h 12m
Waxing Crescent, 17% of the Moon is Illuminated
Sep 19
Waxing Crescent
Sep 22
First Quarter
Sep 29
Full
Oct 8
Last Quarter
Oct 15
New

Hourly Weather History & Observations

Time (CDT) Temp. Dew Point Humidity Pressure Visibility Wind Dir Wind Speed Gust Speed Precip Events Conditions
12:53 AM 72.0 °F 64.0 °F 76% 30.04 in 10.0 mi NNE 5.8 mph - N/A   Clear
1:53 AM 71.1 °F 64.0 °F 78% 30.04 in 10.0 mi NE 5.8 mph - N/A   Clear
2:53 AM 70.0 °F 64.0 °F 81% 30.05 in 10.0 mi NE 6.9 mph - N/A   Clear
3:53 AM 69.1 °F 64.0 °F 84% 30.06 in 10.0 mi NE 9.2 mph - N/A   Clear
4:53 AM 68.0 °F 64.0 °F 87% 30.06 in 10.0 mi NE 8.1 mph - N/A   Clear
5:53 AM 66.9 °F 64.0 °F 90% 30.07 in 10.0 mi ENE 8.1 mph - N/A   Clear
6:53 AM 66.0 °F 64.0 °F 93% 30.09 in 8.0 mi ENE 3.5 mph - N/A   Clear
7:53 AM 66.2 °F 64.4 °F 94% 30.11 in 6.0 mi ENE 5.8 mph - N/A   Clear
8:53 AM 69.1 °F 64.9 °F 87% 30.12 in 10.0 mi East 8.1 mph - N/A   Clear
9:53 AM 73.0 °F 63.0 °F 71% 30.12 in 10.0 mi East 9.2 mph - N/A   Clear
10:53 AM 78.1 °F 57.0 °F 48% 30.13 in 10.0 mi East 9.2 mph - N/A   Clear
11:53 AM 81.0 °F 50.0 °F 34% 30.12 in 10.0 mi North - - N/A   Clear
12:53 PM 82.9 °F 51.1 °F 33% 30.10 in 10.0 mi ESE 5.8 mph - N/A   Unknown
1:53 PM 84.0 °F 46.9 °F 27% 30.08 in 10.0 mi Calm Calm - N/A   Clear
2:53 PM 87.1 °F 46.9 °F 25% 30.06 in 10.0 mi Variable 4.6 mph - N/A   Clear
3:53 PM 88.0 °F 46.0 °F 23% 30.04 in 10.0 mi Variable 5.8 mph - N/A   Clear
4:53 PM 88.0 °F 45.0 °F 22% 30.02 in 10.0 mi NNE 3.5 mph - N/A   Clear
5:53 PM 87.1 °F 45.0 °F 23% 30.02 in 10.0 mi NE 5.8 mph - N/A   Clear
6:53 PM 84.0 °F 44.1 °F 25% 30.02 in 10.0 mi East 6.9 mph - N/A   Clear
7:53 PM 78.8 °F 46.4 °F 32% 30.04 in 10.0 mi East 4.6 mph - N/A   Clear
8:53 PM 77.0 °F 50.0 °F 39% 30.04 in 10.0 mi East 3.5 mph - N/A   Clear
9:53 PM 73.9 °F 52.0 °F 46% 30.06 in 10.0 mi East 3.5 mph - N/A   Clear
10:53 PM 71.1 °F 53.1 °F 53% 30.07 in 10.0 mi Calm Calm - N/A   Clear
11:53 PM 71.1 °F 52.0 °F 51% 30.06 in 10.0 mi Calm Calm - N/A   Clear